Regional Weather Roundup
Issued by NWS Sterling, VA

Home | Current Version | Previous Version | Graphics & Text | Print | Product List | Glossary On
Versions: 1 2 3 4 5 6 7 8 9 10 11 12 13 14 15 16 17 18 19 20 21 22 23 24 25 26 27 28 29 30 31 32 33 34 35 36 37 38 39 40 41 42 43 44 45 46 47 48 49 50
863
ASUS41 KLWX 130811
RWRLWX

REGIONAL WEATHER ROUNDUP
NATIONAL WEATHER SERVICE BALTIMORE MD/WASHINGTON DC
300 AM EST WED DEC 13 2017

Note: "FAIR" indicates few or no clouds below 12,000 feet
with no significant weather and/or obstructions to visibility.
 TC=TEMPERATURE CELSIUS

 * =Non NWS site. Station does not report precipitation (e.g. rain,
    snow, etc.), thunder, or fog.

DCZ001-MDZ009-015-VAZ040>042-051-053>054-130900-
WASHINGTON METRO

CITY           SKY/WX    TMP DP  RH WIND       PRES   REMARKS
WASHINGTON NAT PTCLDY    23   1  38 NW20G28   29.80R WCI   8
DULLES         PTCLDY    21   2  43 NW21G31   29.78R WCI   5
ANDREWS AFB    PTCLDY    22   1  39 W16G23    29.75R WCI   8
FT BELVOIR     CLEAR     23  -1  35 NW15G28   29.80R WCI  10
QUANTICO       CLEAR     24  -1  33 NW20G28   29.83R WCI  10
COLLEGE PARK*  PTCLDY    22   1  39 W17G25    29.76S WCI   8
LEESBURG*      MOCLDY    23   5  46 NW16      29.79R WCI  10
MANASSAS*      PTCLDY    21   4  47 NW18G24   29.81R WCI   6
GAITHERSBURG*  CLEAR     19   3  49 NW16G25   29.74S WCI   4

$$

MDZ006>007-011-014-130900-
BALTIMORE METRO

CITY           SKY/WX    TMP DP  RH WIND       PRES   REMARKS
BWI AIRPORT    PTCLDY    21   4  47 W17G26    29.74S WCI   7
MD SCIENCE CTR   N/A     23   3  42 MISG      29.76S
MARTIN STATE   CLEAR     23   5  46 W14G24    29.76R WCI  11
ANNAPOLIS      PTCLDY    23   8  52 W15G26    29.76R WCI  10
FORT MEADE*    CLEAR     21   5  49 W15G29    29.78R WCI   8

$$

MDZ012-015-019>023-130900-
MARYLAND EASTERN SHORE

CITY           SKY/WX    TMP DP  RH WIND       PRES   REMARKS
OCEAN CITY     MOCLDY    24   7  48 NW21G36   29.72R WCI   9
SALISBURY      PTCLDY    24   5  44 NW18G31   29.73R WCI  10
BAY BRIDGE AP* MOCLDY    23   7  50 W17G23    29.76R WCI   9
CAMBRIDGE*     MOCLDY    23   1  39 NW20G39   29.76R WCI   8
EASTON*        MOCLDY    25   5  42 NW15G25   29.78R WCI  12

$$

MDZ017>025-130900-
SOUTHERN MARYLAND

CITY           SKY/WX    TMP DP  RH WIND       PRES   REMARKS
PATUXENT RIVER PTCLDY    24   1  36 NW32G40   29.78R WCI   6
ST INIGOES     PTCLDY    24   3  40 NW16G28   29.78R WCI  11
LEONARDTOWN*   CLEAR     23   0  36 NW20G30   29.79R WCI   8

$$

MDZ003>005-130900-
NORTH CENTRAL MARYLAND

CITY           SKY/WX    TMP DP  RH WIND       PRES   REMARKS
FREDERICK*     CLEAR     21   1  42 W13       29.79R WCI   9
HAGERSTOWN APT PTCLDY    20   3  48 W23G37    29.72S WCI   3
WESTMINSTER*   PTCLDY    19   9  63 W15G23    29.69R WCI   5

$$

MDZ501>502-130900-
WESTERN MARYLAND

CITY           SKY/WX    TMP DP  RH WIND       PRES   REMARKS
OAKLAND*       PTCLDY     7  -2  66 W13G29    29.58R WCI  -9
CUMBERLAND*    CLEAR     19   5  53 W10       29.83R WCI   8

$$

VAZ025>031-130900-
SHENANDOAH VALLEY

CITY           SKY/WX    TMP DP  RH WIND       PRES   REMARKS
WINCHESTER*    MOCLDY    19   0  42 W14G24    29.77R WCI   6
FRONT ROYAL*   FAIR      21   0  39 MISG      29.76R
LURAY*         CLOUDY    23   5  46 NW8       29.76R WCI  14
NEW MARKET*    CLOUDY    22  -1  37 W5        29.75R
STAUNTON*      CLOUDY    21   3  45 W8        29.78R WCI  11
WAYNESBORO*    MOCLDY    20   1  44 W6G17     29.73R

$$

WVZ021-048>050-054>055-130900-
EASTERN WEST VIRGINIA PANHANDLE

CITY           SKY/WX    TMP DP  RH WIND       PRES   REMARKS
MARTINSBURG    MOCLDY    20   0  41 W14G24    29.76R WCI   7
PETERSBURG*    CLOUDY    19   6  55 W13G26    29.80R WCI   7

$$

VAZ036>039-050-130900-
CENTRAL FOOTHILLS

CITY           SKY/WX    TMP DP  RH WIND       PRES   REMARKS
CHARLOTTESVILL PTCLDY    26   2  35 W10G21    29.78R WCI  16
CULPEPER*      CLOUDY    24   0  35 NW7       29.80S
ORANGE*        CLOUDY    25   7  46 CALM      29.79R
GORDONSVILLE*  MOCLDY    25   5  43 W6        29.78R
WARRENTON*     MOCLDY    22  -1  36 NW6       29.79R

$$

VAZ055>057-130900-
NORTH AND CENTRAL PIEDMONT

CITY           SKY/WX    TMP DP  RH WIND       PRES   REMARKS
FREDERICKSBRG* PTCLDY    25   8  48 NW13G18   29.81R WCI  13
STAFFORD*      CLEAR     22   2  42 NW16G25   29.84R WCI   8

$$

NCZ024-NYZ072-PAZ021-071-VAZ022-071-130900-
OTHER REGIONAL OBSERVATIONS

CITY           SKY/WX    TMP DP  RH WIND       PRES   REMARKS
NEW YORK CITY  PTCLDY    23   3  42 W10G17    29.54R WCI  12
PHILADELPHIA   PTCLDY    22   0  38 W17G25    29.66S WCI   8
PITTSBURGH     CLEAR     15   7  70 W12G18    29.79R WCI   2
ROANOKE        CLOUDY    23   9  55 NW16      29.82R WCI  10
RICHMOND       MOCLDY    28   5  37 W5        29.80R
RALEIGH        CLEAR     27   8  44 CALM      29.88R

$$

ANZ530>537-130900-
MARINE OBSERVATIONS

STATION/POSITION TIME  TEMP    WIND        PRES
                       AIR SEA DIR/SP/G
                 (UTC) (F)     (DEG/KT/KT) (MB)
THOMAS PT LIGHT  0800   24 46  310/ 27/ 33   N/A
BALT KEY BRIDGE  0742   24     280/ 17/ 22 1007.0R
COVE POINT       0742   24     320/ 20/ 27 1008.6R
LEWISETTA        0742   27 43  340/ 17/ 25 1008.6R
SOLOMONS ISLAND  0742   25 46  300/ 15/ 25 1008.1R
PINEY POINT      0742          360/ 28/ 31   N/A

$$





USA.gov is the U.S. government's official web portal to all federal, state and local government web resources and services.